H1 CPF 2 NER 2025 11 7 9 311 01 glonass141 H2 1908801 9141 44850 2025 11 7 0 0 0 2025 11 10 23 45 0 900 1 1 0 0 0 1 H9 10 0 60986 0.00000 0 17516657.091 1881881.190 -18432883.015 10 0 60986 900.00000 0 19392428.301 2938676.978 -16297933.081 10 0 60986 1800.00000 0 21094710.560 3715758.218 -13846168.578 10 0 60986 2700.00000 0 22562070.282 4228211.603 -11125346.924 10 0 60986 3600.00000 0 23739412.025 4502802.842 -8188419.083 10 0 60986 4500.00000 0 24580249.687 4576583.102 -5092493.075 10 0 60986 5400.00000 0 25048633.375 4495064.343 -1897719.204 10 0 60986 6300.00000 0 25120651.802 4310042.268 1333880.876 10 0 60986 7200.00000 0 24785448.079 4077160.171 4539618.080 10 0 60986 8100.00000 0 24045707.279 3853317.497 7657349.297 10 0 60986 9000.00000 0 22917596.296 3694033.070 10626676.736 10 0 60986 9900.00000 0 21430159.405 3650874.399 13390110.256 10 0 60986 10800.00000 0 19624195.458 3769061.328 15894170.747 10 0 60986 11700.00000 0 17550663.986 4085344.609 18090414.044 10 0 60986 12600.00000 0 15268686.721 4626248.250 19936356.609 10 0 60986 13500.00000 0 12843227.359 5406749.180 21396286.302 10 0 60986 14400.00000 0 10342545.290 6429449.526 22441943.775 10 0 60986 15300.00000 0 7835527.951 7684276.486 23053062.469 10 0 60986 16200.00000 0 5389011.126 9148723.020 23217757.644 10 0 60986 17100.00000 0 3065196.813 10788620.526 22932757.496 10 0 60986 18000.00000 0 919274.230 12559412.737 22203471.994 10 0 60986 18900.00000 0 -1002658.706 14407879.573 21043897.756 10 0 60986 19800.00000 0 -2665288.340 16274241.037 19476359.992 10 0 60986 20700.00000 0 -4045323.030 18094555.276 17531095.332 10 0 60986 21600.00000 0 -5132224.670 19803312.437 15245682.124 10 0 60986 22500.00000 0 -5928403.573 21336117.215 12664327.652 10 0 60986 23400.00000 0 -6448868.405 22632348.654 9837024.566 10 0 60986 24300.00000 0 -6720345.582 23637685.932 6818591.520 10 0 60986 25200.00000 0 -6779904.801 24306393.763 3667615.630 10 0 60986 26100.00000 0 -6673148.365 24603270.421 445316.759 10 0 60986 27000.00000 0 -6452040.768 24505175.069 -2785644.399 10 0 60986 27900.00000 0 -6172470.583 24002068.465 -5962390.872 10 0 60986 28800.00000 0 -5891648.562 23097521.453 -9023061.960 10 0 60986 29700.00000 0 -5665453.202 21808668.214 -11908028.685 10 0 60986 30600.00000 0 -5545837.607 20165604.844 -14561067.255 10 0 60986 31500.00000 0 -5578409.075 18210257.571 -16930466.345 10 0 60986 32400.00000 0 -5800285.564 15994767.581 -18970045.463 10 0 60986 33300.00000 0 -6238321.372 13579460.089 -20640063.608 10 0 60986 34200.00000 0 -6907778.503 11030483.001 -21907999.762 10 0 60986 35100.00000 0 -7811501.074 8417214.458 -22749189.657 10 0 60986 36000.00000 0 -8939628.503 5809548.157 -23147306.318 10 0 60986 36900.00000 0 -10269860.184 3275170.358 -23094675.169 10 0 60986 37800.00000 0 -11768260.813 876942.439 -22592417.963 10 0 60986 38700.00000 0 -13390572.544 -1329501.877 -21650423.253 10 0 60986 39600.00000 0 -15083978.655 -3297844.887 -20287144.563 10 0 60986 40500.00000 0 -16789244.332 -4992772.690 -18529230.868 10 0 60986 41400.00000 0 -18443144.321 -6391193.346 -16410997.173 10 0 60986 42300.00000 0 -19981075.131 -7482936.292 -13973746.173 10 0 60986 43200.00000 0 -21339741.828 -8270905.907 -11264954.810 10 0 60986 44100.00000 0 -22459806.440 -8770685.132 -8337342.126 10 0 60986 45000.00000 0 -23288386.736 -9009608.166 -5247837.196 10 0 60986 45900.00000 0 -23781300.638 -9025343.527 -2056467.717 10 0 60986 46800.00000 0 -23904962.433 -8864049.241 1174808.679 10 0 60986 47700.00000 0 -23637851.686 -8578179.584 4383307.264 10 0 60986 48600.00000 0 -22971493.939 -8224037.219 7506829.674 10 0 60986 49500.00000 0 -21910912.771 -7859174.814 10484864.503 10 0 60986 50400.00000 0 -20474534.992 -7539756.117 13259751.957 10 0 60986 51300.00000 0 -18693553.433 -7317987.739 15777790.616 10 0 60986 52200.00000 0 -16610774.286 -7239729.475 17990265.704 10 0 60986 53100.00000 0 -14278996.993 -7342383.230 19854379.995 10 0 60986 54000.00000 0 -11758993.791 -7653148.713 21334070.584 10 0 60986 54900.00000 0 -9117172.081 -8187718.707 22400696.941 10 0 60986 55800.00000 0 -6423015.564 -8949468.462 23033588.108 10 0 60986 56700.00000 0 -3746408.849 -9929173.383 23220439.344 10 0 60986 57600.00000 0 -1154954.794 -11105267.490 22957551.156 10 0 60986 58500.00000 0 1288605.904 -12444632.991 22249906.198 10 0 60986 59400.00000 0 3528767.448 -13903889.426 21111082.252 10 0 60986 60300.00000 0 5519327.010 -15431130.322 19563002.161 10 0 60986 61200.00000 0 7225063.216 -16968036.578 17635524.388 10 0 60986 62100.00000 0 8622955.923 -18452279.945 15365880.670 10 0 60986 63000.00000 0 9702896.768 -19820117.467 12797970.061 10 0 60986 63900.00000 0 10467860.759 -21009069.138 9981521.507 10 0 60986 64800.00000 0 10933531.499 -21960566.876 6971139.843 10 0 60986 65700.00000 0 11127395.436 -22622463.355 3825252.674 10 0 60986 66600.00000 0 11087342.917 -22951294.409 604978.048 10 0 60986 67500.00000 0 10859834.882 -22914198.434 -2627065.217 10 0 60986 68400.00000 0 10497712.754 -22490410.292 -5807981.059 10 0 60986 69300.00000 0 10057744.571 -21672264.825 -8875828.940 10 0 60986 70200.00000 0 9598012.055 -20465665.823 -11770840.791 10 0 60986 71100.00000 0 9175250.385 -18889998.906 -14436597.199 10 0 60986 72000.00000 0 8842254.691 -16977490.568 -16821138.570 10 0 60986 72900.00000 0 8645464.578 -14772039.265 -18877988.474 10 0 60986 73800.00000 0 8622830.356 -12327567.003 -20567068.224 10 0 60986 74700.00000 0 8802052.552 -9705960.349 -21855484.122 10 0 60986 75600.00000 0 9199270.223 -6974687.155 -22718171.671 10 0 60986 76500.00000 0 9818254.225 -4204188.942 -23138384.069 10 0 60986 77400.00000 0 10650139.982 -1465158.211 -23108015.633 10 0 60986 78300.00000 0 11673711.175 1174185.444 -22627754.232 10 0 60986 79200.00000 0 12856222.302 3650706.850 -21707060.262 10 0 60986 80100.00000 0 14154725.145 5908745.773 -20363973.186 10 0 60986 81000.00000 0 15517842.840 7902187.493 -18624750.045 10 0 60986 81900.00000 0 16887916.377 9596128.192 -16523343.612 10 0 60986 82800.00000 0 18203432.609 10968067.163 -14100731.012 10 0 60986 83700.00000 0 19401631.169 12008577.932 -11404106.504 10 0 60986 84600.00000 0 20421180.195 12721432.393 -8485954.716 10 0 60986 85500.00000 0 21204808.058 13123175.095 -5403023.006 10 0 60987 0.00000 0 21701780.300 13242167.912 -2215213.749 10 0 60987 900.00000 0 21870117.943 13117147.521 1015583.179 10 0 60987 1800.00000 0 21678463.616 12795358.238 4226690.337 10 0 60987 2700.00000 0 21107518.425 12330340.661 7355857.300 10 0 60987 3600.00000 0 20150989.024 11779470.197 10342462.082 10 0 60987 4500.00000 0 18816005.985 11201349.963 13128678.061 10 0 60987 5400.00000 0 17122996.294 10653168.054 15660584.060 10 0 60987 6300.00000 0 15105015.463 10188130.173 17889196.933 10 0 60987 7200.00000 0 12806567.054 9853075.114 19771407.674 10 0 60987 8100.00000 0 10281958.342 9686372.589 21270804.176 10 0 60987 9000.00000 0 7593259.648 9716190.934 22358365.928 10 0 60987 9900.00000 0 4807950.966 9959206.781 23013018.383 10 0 60987 10800.00000 0 1996351.960 10419810.491 23222037.203 10 0 60987 11700.00000 0 -771059.855 11089840.729 22981295.150 10 0 60987 12600.00000 0 -3426333.391 11948859.889 22295347.038 10 0 60987 13500.00000 0 -5906621.278 12964959.835 21177350.786 10 0 60987 14400.00000 0 -8156544.871 14096065.654 19648825.341 10 0 60987 15300.00000 0 -10130250.018 15291684.411 17739249.012 10 0 60987 16200.00000 0 -11793069.044 16495027.331 15485504.529 10 0 60987 17100.00000 0 -13122720.188 17645417.927 12931179.988 10 0 60987 18000.00000 0 -14109994.506 18680886.153 10125737.670 10 0 60987 18900.00000 0 -14758901.313 19540840.270 7123565.486 10 0 60987 19800.00000 0 -15086265.645 20168704.099 3982928.360 10 0 60987 20700.00000 0 -15120794.255 20514408.072 764839.344 10 0 60987 21600.00000 0 -14901649.102 20536627.966 -2468127.751 10 0 60987 22500.00000 0 -14476588.429 20204675.317 -5653060.803 10 0 60987 23400.00000 0 -13899754.149 19499957.844 -8727942.322 10 0 60987 24300.00000 0 -13229199.644 18416946.254 -11632867.819 10 0 60987 25200.00000 0 -12524263.463 16963604.612 -14311224.657 10 0 60987 26100.00000 0 -11842901.214 15161264.403 -16710807.053 10 0 60987 27000.00000 0 -11239089.836 13043946.048 -18784844.353 10 0 60987 27900.00000 0 -10760415.374 10657155.366 -20492921.524 10 0 60987 28800.00000 0 -10445947.450 8056204.791 -21801773.167 10 0 60987 29700.00000 0 -10324491.233 5304129.420 -22685935.175 10 0 60987 30600.00000 0 -10413291.398 2469285.028 -23128241.198 10 0 60987 31500.00000 0 -10717243.117 -377271.364 -23120154.398 10 0 60987 32400.00000 0 -11228643.344 -3164508.909 -22661928.369 10 0 60987 33300.00000 0 -11927492.597 -5824144.496 -21762594.634 10 0 60987 34200.00000 0 -12782333.938 -8293245.141 -20439777.532 10 0 60987 35100.00000 0 -13751593.093 -10516603.178 -18719340.786 10 0 60987 36000.00000 0 -14785362.428 -12448786.072 -16634873.250 10 0 60987 36900.00000 0 -15827552.783 -14055776.538 -14227024.528 10 0 60987 37800.00000 0 -16818321.728 -15316136.065 -11542704.033 10 0 60987 38700.00000 0 -17696675.244 -16221645.153 -8634159.646 10 0 60987 39600.00000 0 -18403132.718 -16777395.571 -5557954.554 10 0 60987 40500.00000 0 -18882342.622 -17001333.062 -2373862.679 10 0 60987 41400.00000 0 -19085538.594 -16923271.941 856295.346 10 0 60987 42300.00000 0 -18972732.566 -16583425.028 4069852.653 10 0 60987 43200.00000 0 -18514552.908 -16030512.569 7204509.526 10 0 60987 44100.00000 0 -17693650.626 -15319531.079 10199536.214 10 0 60987 45000.00000 0 -16505614.953 -14509276.900 12996942.059 10 0 60987 45900.00000 0 -14959360.207 -13659729.115 15542588.819 10 0 60987 46800.00000 0 -13076967.856 -12829401.804 17787227.488 10 0 60987 47700.00000 0 -10892990.213 -12072776.445 19687439.527 10 0 60987 48600.00000 0 -8453244.365 -11437921.541 21206465.517 10 0 60987 49500.00000 0 -5813145.625 -10964398.416 22314906.461 10 0 60987 50400.00000 0 -3035648.605 -10681540.069 22991285.284 10 0 60987 51300.00000 0 -188879.790 -10607174.489 23222458.667 10 0 60987 52200.00000 0 2656442.043 -10746845.453 23003871.830 10 0 60987 53100.00000 0 5429692.528 -11093563.439 22339651.551 10 0 60987 54000.00000 0 8063026.120 -11628097.532 21242535.323 10 0 60987 54900.00000 0 10493948.682 -12319796.986 19733637.298 10 0 60987 55800.00000 0 12667672.880 -13127909.221 17842054.393 10 0 60987 56700.00000 0 14539159.591 -14003340.392 15604318.759 10 0 60987 57600.00000 0 16074760.978 -14890786.051 13063705.602 10 0 60987 58500.00000 0 17253396.822 -15731143.533 10269408.246 10 0 60987 59400.00000 0 18067214.804 -16464105.456 7275595.020 10 0 60987 60300.00000 0 18521706.602 -17030825.384 4140365.178 10 0 60987 61200.00000 0 18635274.362 -17376543.035 924623.537 10 0 60987 62100.00000 0 18438265.239 -17453057.356 -2309104.502 10 0 60987 63000.00000 0 17971514.337 -17220941.685 -5497894.206 10 0 60987 63900.00000 0 17284457.423 -16651405.609 -8579654.517 10 0 60987 64800.00000 0 16432893.393 -15727722.837 -11494347.746 10 0 60987 65700.00000 0 15476491.645 -14446162.653 -14185171.009 10 0 60987 66600.00000 0 14476150.656 -12816383.624 -16599675.009 10 0 60987 67500.00000 0 13491320.516 -10861271.171 -18690797.195 10 0 60987 68400.00000 0 12577403.736 -8616224.348 -20417788.131 10 0 60987 69300.00000 0 11783345.270 -6127920.749 -21747012.234 10 0 60987 70200.00000 0 11149514.376 -3452610.682 -22652606.855 10 0 60987 71100.00000 0 10705968.328 -654011.666 -23116986.715 10 0 60987 72000.00000 0 10471171.456 2199108.726 -23131183.976 10 0 60987 72900.00000 0 10451223.367 5035560.692 -22695017.699 10 0 60987 73800.00000 0 10639628.422 7784460.985 -21817089.873 10 0 60987 74700.00000 0 11017615.356 10377948.879 -20514608.710 10 0 60987 75600.00000 0 11554992.600 12753776.315 -18813043.282 10 0 60987 76500.00000 0 12211502.099 14857664.832 -16745616.898 10 0 60987 77400.00000 0 12938613.396 16645331.759 -14352649.721 10 0 60987 78300.00000 0 13681681.194 18084102.375 -11680764.106 10 0 60987 79200.00000 0 14382374.414 19154042.241 -8781968.690 10 0 60987 80100.00000 0 14981273.437 19848564.171 -5712639.723 10 0 60987 81000.00000 0 15420525.356 20174486.478 -2532419.970 10 0 60987 81900.00000 0 15646444.878 20151542.185 696942.911 10 0 60987 82800.00000 0 15611951.049 19811361.845 3912795.566 10 0 60987 83700.00000 0 15278737.169 19195974.551 7052792.191 10 0 60987 84600.00000 0 14619082.755 18355891.673 10056098.359 10 0 60987 85500.00000 0 13617231.578 17347854.966 12864562.261 10 0 60988 0.00000 0 12270278.312 16232344.401 15423831.019 10 0 60988 900.00000 0 10588525.877 15070949.921 17684392.581 10 0 60988 1800.00000 0 8595300.295 13923718.617 19602520.676 10 0 60988 2700.00000 0 6326227.905 12846585.872 21141110.296 10 0 60988 3600.00000 0 3828005.959 11888998.628 22270385.321 10 0 60988 4500.00000 0 1156715.882 11091828.582 22968467.153 10 0 60988 5400.00000 0 -1624252.183 10485661.733 23221794.097 10 0 60988 6300.00000 0 -4446579.258 10089534.921 23025384.007 10 0 60988 7200.00000 0 -7239605.161 9910171.708 22382935.334 10 0 60988 8100.00000 0 -9933018.573 9941749.451 21306764.373 10 0 60988 9000.00000 0 -12459539.976 10166207.621 19817579.213 10 0 60988 9900.00000 0 -14757487.624 10554085.184 17944093.635 10 0 60988 10800.00000 0 -16773121.216 11065852.940 15722487.031 10 0 60988 11700.00000 0 -18462666.502 11653686.034 13195719.183 10 0 60988 12600.00000 0 -19793936.658 12263603.230 10412711.652 10 0 60988 13500.00000 0 -20747482.550 12837883.774 7427410.197 10 0 60988 14400.00000 0 -21317223.232 13317660.474 4297745.336 10 0 60988 15300.00000 0 -21510529.508 13645579.521 1084510.553 10 0 60988 16200.00000 0 -21347756.274 13768414.128 -2149820.230 10 0 60988 17100.00000 0 -20861242.687 13639520.369 -5342312.683 10 0 60988 18000.00000 0 -20093821.868 13221029.738 -8430805.091 10 0 60988 18900.00000 0 -19096902.956 12485683.788 -11355129.354 10 0 60988 19800.00000 0 -17928206.749 11418231.139 -14058294.936 10 0 60988 20700.00000 0 -16649251.178 10016325.706 -16487611.372 10 0 60988 21600.00000 0 -15322693.670 8290886.241 -18595726.245 10 0 60988 22500.00000 0 -14009643.597 6265900.267 -20341557.372 10 0 60988 23400.00000 0 -12767059.214 3977679.299 -21691100.242 10 0 60988 24300.00000 0 -11645339.716 1473595.574 -22618094.500 10 0 60988 25200.00000 0 -10686214.473 -1189647.378 -23104536.351 10 0 60988 26100.00000 0 -9921018.605 -3948138.228 -23141026.972 10 0 60988 27000.00000 0 -9369427.301 -6733186.742 -22726950.511 10 0 60988 27900.00000 0 -9038701.600 -9473956.627 -21870478.686 10 0 60988 28800.00000 0 -8923476.438 -12100192.416 -20588402.495 10 0 60988 29700.00000 0 -9006098.611 -14544926.707 -18905794.972 10 0 60988 30600.00000 0 -9257499.036 -16747055.153 -16855512.214 10 0 60988 31500.00000 0 -9638560.979 -18653672.255 -14477543.069 10 0 60988 32400.00000 0 -10101925.100 -20222071.347 -11818220.790 10 0 60988 33300.00000 0 -10594153.756 -21421326.390 -8929312.619 10 0 60988 34200.00000 0 -11058162.040 -22233390.914 -5867005.638 10 0 60988 35100.00000 0 -11435811.966 -22653669.825 -2690809.180 10 0 60988 36000.00000 0 -11670559.599 -22691042.008 537604.395 10 0 60988 36900.00000 0 -11710042.997 -22367334.684 3755597.618 10 0 60988 37800.00000 0 -11508501.622 -21716273.382 6900781.035 10 0 60988 38700.00000 0 -11028925.294 -20781953.187 9912218.031 10 0 60988 39600.00000 0 -10244842.345 -19616896.683 12731598.167 10 0 60988 40500.00000 0 -9141672.005 -18279780.876 15304356.858 10 0 60988 41400.00000 0 -7717584.348 -16832928.778 17580720.503 10 0 60988 42300.00000 0 -5983831.667 -15339670.599 19516657.825 10 0 60988 43200.00000 0 -3964537.066 -13861684.472 21074720.240 10 0 60988 44100.00000 0 -1695948.341 -12456426.975 22224756.229 10 0 60988 45000.00000 0 774812.892 -11174759.720 22944487.058 10 0 60988 45900.00000 0 3391456.281 -10058869.884 23219933.696 10 0 60988 46800.00000 0 6090613.031 -9140570.368 23045687.312 10 0 60988 47700.00000 0 8804226.669 -8440049.605 22425018.375 10 0 60988 48600.00000 0 11462147.153 -7965122.660 21369822.003 10 0 60988 49500.00000 0 13994822.763 -7711014.683 19900399.914 10 0 60988 50400.00000 0 16335979.683 -7660686.029 18045082.134 10 0 60988 51300.00000 0 18425179.377 -7785685.952 15839694.333 10 0 60988 52200.00000 0 20210148.191 -8047499.872 13326879.542 10 0 60988 53100.00000 0 21648782.463 -8399334.501 10555285.820 10 0 60988 54000.00000 0 22710745.286 -8788266.478 7578634.209 10 0 60988 54900.00000 0 23378587.573 -9157664.499 4454683.904 10 0 60988 55800.00000 0 23648345.584 -9449782.838 1244114.100 10 0 60988 56700.00000 0 23529588.853 -9608416.285 -1990656.026 10 0 60988 57600.00000 0 23044915.555 -9581503.355 -5186686.010 10 0 60988 58500.00000 0 22228915.802 -9323566.214 -8281747.015 10 0 60988 59400.00000 0 21126646.117 -8797882.296 -11215544.003 10 0 60988 60300.00000 0 19791679.307 -7978293.681 -13930902.101 10 0 60988 61200.00000 0 18283812.277 -6850575.585 -16374892.749 10 0 60988 62100.00000 0 16666529.065 -5413304.041 -18499876.436 10 0 60988 63000.00000 0 15004326.835 -3678184.233 -20264440.666 10 0 60988 63900.00000 0 13360018.407 -1669824.033 -21634214.063 10 0 60988 64800.00000 0 11792125.715 575038.992 -22582540.230 10 0 60988 65700.00000 0 10352474.494 3008825.604 -23090998.101 10 0 60988 66600.00000 0 9084091.602 5574864.445 -23149758.673 10 0 60988 67500.00000 0 8019493.274 8209530.158 -22757771.534 10 0 60988 68400.00000 0 7179435.630 10844680.756 -21922778.038 10 0 60988 69300.00000 0 6572178.986 13410292.326 -20661151.437 10 0 60988 70200.00000 0 6193295.525 15837181.037 -18997567.778 10 0 60988 71100.00000 0 6026026.745 18059698.880 -16964514.593 10 0 60988 72000.00000 0 6042173.867 20018290.819 -14601647.666 10 0 60988 72900.00000 0 6203481.813 21661807.070 -11955009.034 10 0 60988 73800.00000 0 6463456.643 22949474.651 -9076122.063 10 0 60988 74700.00000 0 6769538.149 23852446.838 -6020981.870 10 0 60988 75600.00000 0 7065534.582 24354867.023 -2848961.282 10 0 60988 76500.00000 0 7294215.607 24454403.992 378345.916 10 0 60988 77400.00000 0 7399953.320 24162237.820 3598321.526 10 0 60988 78300.00000 0 7331299.403 23502498.666 6748535.843 10 0 60988 79200.00000 0 7043389.554 22511183.511 9767953.376 10 0 60988 80100.00000 0 6500073.948 21234597.522 12598108.202 10 0 60988 81000.00000 0 5675684.178 19727386.288 15184226.728 10 0 60988 81900.00000 0 4556362.579 18050241.783 17476276.894 10 0 60988 82800.00000 0 3140898.193 16267378.081 19429924.507 10 0 60988 83700.00000 0 1441034.120 14443881.866 21007379.408 10 0 60988 84600.00000 0 -518767.154 12643047.541 22178116.328 10 0 60988 85500.00000 0 -2702091.592 10923806.959 22919457.675 10 0 60989 0.00000 0 -5061843.780 9338359.754 23217007.947 10 0 60989 900.00000 0 -7541969.579 7930100.848 23064932.132 10 0 60989 1800.00000 0 -10079558.463 6731932.350 22466072.643 10 0 60989 2700.00000 0 -12607244.495 5765026.428 21431902.896 10 0 60989 3600.00000 0 -15055805.236 5038092.266 19982317.220 10 0 60989 4500.00000 0 -17356853.663 4547176.598 18145260.351 10 0 60989 5400.00000 0 -19445512.532 4276006.443 15956202.243 10 0 60989 6300.00000 0 -21262960.910 4196860.109 13457466.760 10 0 60989 7200.00000 0 -22758747.203 4271930.517 10697425.719 10 0 60989 8100.00000 0 -23892772.060 4455124.185 7729572.450 10 0 60989 9000.00000 0 -24636857.673 4694220.580 4611491.696 10 0 60989 9900.00000 0 -24975836.755 4933300.969 1403745.148 10 0 60989 10800.00000 0 -24908114.355 5115343.942 -1831305.982 10 0 60989 11700.00000 0 -24445677.626 5184877.186 -5030718.276 10 0 60989 12600.00000 0 -23613552.072 5090572.120 -8132198.896 10 0 60989 13500.00000 0 -22448726.269 4787669.964 -11075328.880 10 0 60989 14400.00000 0 -20998589.890 4240134.672 -13802751.885 10 0 60989 15300.00000 0 -19318950.727 3422439.543 -16261303.894 10 0 60989 16200.00000 0 -17471714.520 2320909.893 -18403060.645 10 0 60989 17100.00000 0 -15522325.830 934563.096 -20186281.288 10 0 60989 18000.00000 0 -13537078.370 -724591.187 -21576229.074 10 0 60989 18900.00000 0 -11580408.619 -2631804.655 -22545852.562 10 0 60989 19800.00000 0 -9712287.022 -4750388.340 -23076313.870 10 0 60989 20700.00000 0 -7985816.674 -7033022.095 -23157353.764 10 0 60989 21600.00000 0 -6445140.202 -9423521.089 -22787486.736 10 0 60989 22500.00000 0 -5123742.181 -11858985.520 -21974022.798 10 0 60989 23400.00000 0 -4043217.396 -14272243.501 -20732916.109 10 0 60989 24300.00000 0 -3212555.251 -16594484.895 -19088444.054 10 0 60989 25200.00000 0 -2627968.673 -18757975.899 -17072723.684 10 0 60989 26100.00000 0 -2273272.726 -20698740.894 -14725075.618 10 0 60989 27000.00000 0 -2120794.894 -22359099.644 -12091248.448 10 0 60989 27900.00000 0 -2132776.599 -23689954.152 -9222519.385 10 0 60989 28800.00000 0 -2263204.921 -24652730.160 -6174689.287 10 0 60989 29700.00000 0 -2459995.465 -25220892.964 -3006992.197 10 0 60989 30600.00000 0 -2667432.849 -25380975.241 219058.918 10 0 60989 31500.00000 0 -2828764.637 -25133075.155 3440867.356 10 0 60989 32400.00000 0 -2888838.526 -24490805.277 6595965.365 10 0 60989 33300.00000 0 -2796671.121 -23480695.833 9623220.778 10 0 60989 34200.00000 0 -2507839.860 -22141078.482 12464014.377 10 0 60989 35100.00000 0 -1986597.480 -20520498.277 15063365.705 10 0 60989 36000.00000 0 -1207620.230 -18675720.796 17370986.315 10 0 60989 36900.00000 0 -157316.597 -16669417.828 19342241.031 10 0 60989 37800.00000 0 1165358.405 -14567627.909 20938999.862 10 0 60989 38700.00000 0 2748617.747 -12437096.797 22130365.302 10 0 60989 39600.00000 0 4568098.325 -10342607.587 22893262.141 10 0 60989 40500.00000 0 6587648.756 -8344410.207 23212879.381 10 0 60989 41400.00000 0 8760617.703 -6495855.762 23082956.389 10 0 60989 42300.00000 0 11031590.915 -4841332.699 22505908.023 10 0 60989 43200.00000 0 13338506.779 -3414589.400 21492786.144 10 0 60989 44100.00000 0 15615064.489 -2237512.058 20063077.579 10 0 60989 45000.00000 0 17793326.606 -1319408.187 18244341.429 10 0 60989 45900.00000 0 19806409.362 -656825.413 16071691.302 10 0 60989 46800.00000 0 21591149.867 -233913.216 13587130.984 10 0 60989 47700.00000 0 23090639.584 -23312.832 10838754.796 10 0 60989 48600.00000 0 24256518.351 12461.599 7879826.738 10 0 60989 49500.00000 0 25050932.500 -80791.674 4767755.075 10 0 60989 50400.00000 0 25448074.010 -251134.069 1562981.591 10 0 60989 51300.00000 0 25435234.864 -442924.270 -1672193.226 10 0 60989 52200.00000 0 25013330.824 -599417.865 -4874826.037 10 0 60989 53100.00000 0 24196871.158 -665418.114 -7982563.209 10 0 60989 54000.00000 0 23013374.365 -589864.254 -10934865.115 10 0 60989 54900.00000 0 21502253.538 -328246.103 -13674197.158 10 0 60989 55800.00000 0 19713217.748 155259.191 -16147162.946 10 0 60989 56700.00000 0 17704256.617 886020.633 -18305556.342 10 0 60989 57600.00000 0 15539293.011 1877633.731 -20107310.791 10 0 60989 58500.00000 0 13285603.043 3131105.183 -21517326.558 10 0 60989 59400.00000 0 11011112.294 4634577.787 -22508159.251 10 0 60989 60300.00000 0 8781682.258 6363608.338 -23060555.959 10 0 60989 61200.00000 0 6658501.199 8281987.612 -23163828.628 10 0 60989 62100.00000 0 4695688.798 10343068.501 -22816057.669 10 0 60989 63000.00000 0 2938214.609 12491546.760 -22024122.320 10 0 60989 63900.00000 0 1420216.715 14665619.697 -20803557.730 10 0 60989 64800.00000 0 163789.810 16799432.185 -19178242.227 10 0 60989 65700.00000 0 -821708.189 18825707.399 -17179921.484 10 0 60989 66600.00000 0 -1539803.873 20678451.909 -14847579.581 10 0 60989 67500.00000 0 -2006506.438 22295621.828 -12226669.844 10 0 60989 68400.00000 0 -2249375.370 23621638.468 -9368221.080 10 0 60989 69300.00000 0 -2306099.188 24609648.448 -6327837.269 10 0 60989 70200.00000 0 -2222647.265 25223434.146 -3164610.735 10 0 60989 71100.00000 0 -2051074.452 25438895.216 60029.554 10 0 60989 72000.00000 0 -1847072.591 25245040.077 3283511.737 10 0 60989 72900.00000 0 -1667373.321 24644446.928 6443333.435 10 0 60989 73800.00000 0 -1567112.398 23653176.119 9478269.207 10 0 60989 74700.00000 0 -1597266.975 22300138.595 12329549.853 10 0 60989 75600.00000 0 -1802273.819 20625947.688 14941991.208 10 0 60989 76500.00000 0 -2217928.506 18681302.792 17265051.373 10 0 60989 77400.00000 0 -2869653.635 16524972.564 19253796.881 10 0 60989 78300.00000 0 -3771208.541 14221461.499 20869760.311 10 0 60989 79200.00000 0 -4923894.639 11838456.320 22081674.002 10 0 60989 80100.00000 0 -6316289.942 9444157.402 22866066.863 10 0 60989 81000.00000 0 -7924524.635 7104604.731 23207713.729 10 0 60989 81900.00000 0 -9713087.362 4881107.959 23099929.304 10 0 60989 82800.00000 0 -11636130.156 2827885.702 22544701.265 10 0 60989 83700.00000 0 -13639219.492 990010.694 21552659.820 10 0 60989 84600.00000 0 -15661462.553 -598255.060 20142883.673 10 0 60989 85500.00000 0 -17637922.054 -1914666.726 18342545.100 99